Regional Weather Roundup
Issued by NWS

Home | Current Version | Previous Version | Graphics & Text | Print | Product List | Glossary On
Versions: 1 2 3 4 5 6 7 8 9 10 11 12 13 14 15 16 17 18 19 20 21 22 23 24 25 26 27 28 29 30 31 32 33 34 35 36 37 38 39 40 41 42 43 44 45 46 47 48 49 50
000
ASUS43 KIND 192209
RWRIN

WEATHER ROUNDUP FOR INDIANA
NATIONAL WEATHER SERVICE INDIANAPOLIS IN
600 PM EDT SAT AUG 19 2017

NOTE: "FAIR" INDICATES FEW OR NO CLOUDS BELOW 12,000 FEET WITH NO
SIGNIFICANT WEATHER AND/OR OBSTRUCTIONS TO VISIBILITY.

* - STATION DOES NOT REPORT WEATHER SUCH AS PRECIPITATION OR FOG.

+ - STATION NOT QUALITY CONTROLLED BY THE NATIONAL WEATHER SERVICE.
    USE DATA WITH CAUTION...ESPECIALLY DEWPOINT AND RELATIVE
    HUMIDITY OBSERVATIONS.

INZ001>003-010>013-019-020-192300-
NORTHWEST INDIANA

CITY           SKY/WX    TMP DP  RH WIND       PRES   REMARKS
GARY /AIRPORT/ SUNNY     81  50  34 VRB6      29.96F
KNOX *+        SUNNY     79  55  44 CALM      29.96S
LA PORTE +     SUNNY     79  57  48 N5        29.97S
MICHIGAN CITY+ SUNNY     77  57  50 N7        29.97F
MONTICELLO +   SUNNY     81  58  45 E3        29.94F
RENSSELAER +   SUNNY     81  50  34 CALM      29.96S
VALPARAISO     SUNNY     83  61  47 N5        29.96F

$$

LMZ046-743>745-192300-
SOUTHERN LAKE MICHIGAN

STATION/POSITION TIME  TEMP    WIND        PRES    WAVE
                       AIR SEA DIR/SP/G            HT
                 (UTC) (F)     (DEG/KT/KT) (MB)    (FT)
BURNS HARBOR     2140   74      50/  5/  7 1015.2S
MICHIGAN CITY    2140   75     350/  5/  6   N/A
5NW MICH CITY    2200   72 76   20/  4/  6   N/A     1

$$

INZ004-005-014>016-021>024-192300-
NORTH CENTRAL INDIANA

CITY           SKY/WX    TMP DP  RH WIND       PRES   REMARKS
ELKHART        SUNNY     81  55  41 N8        29.95F
GOSHEN         SUNNY     80  55  42 SW6       29.95F
LOGANSPORT +   SUNNY     79  59  50 W3        29.96S
PERU/GRISSOM   SUNNY     81  60  48 W5        29.95F
ROCHESTER +    SUNNY    N/A N/A N/A N6        29.96S
SOUTH BEND     SUNNY     80  58  46 NW7       29.97S
WARSAW +       MOSUNNY   79  61  53 CALM      29.96S

$$

INZ006>009-017-018-025>027-192300-
NORTHEAST INDIANA

CITY           SKY/WX    TMP DP  RH WIND       PRES   REMARKS
AUBURN +       SUNNY     79  57  47 W3        29.97S
FORT WAYNE     SUNNY     81  58  45 W9        29.96S
HUNTINGTON +   SUNNY     80  59  49 N3        29.96S

$$

INZ028-029-035-036-043>045-051>053-192300-
WEST CENTRAL INDIANA

CITY           SKY/WX    TMP DP  RH WIND       PRES   REMARKS
GREENCASTLE +  PTSUNNY   84  64  51 CALM      29.94S
LAFAYETTE      SUNNY     83  61  47 N5        29.94F
TERRE HAUTE    CLOUDY    87  70  56 NE5       29.92S

$$

INZ030>032-037>040-046>048-054>057-064-065-192300-
CENTRAL INDIANA

CITY           SKY/WX    TMP DP  RH WIND       PRES   REMARKS
CP ATTERBURY + MOSUNNY   88  63  42 W3        29.93F
FRANKFORT +    CLOUDY    83  66  54 N6        29.97F
GREENWOOD *+   PTSUNNY   85  59  41 NW7       29.95S
INDIANAPOLIS   MOSUNNY   87  59  38 N7        29.93S
-EAGLE CREEK   SUNNY     86  60  41 N7        29.93F
KOKOMO +       SUNNY     81  60  48 CALM      29.97S
MARION +       SUNNY     79  61  53 NW3       29.97S
MT COMFORT *+  MOSUNNY   82  66  57 NE6       29.96R
SHELBYVILLE    CLOUDY    86  65  49 CALM      29.93S
ZIONSVILLE +     N/A     80  67  62 N5        29.96S

$$

INZ033-034-041-042-049-050-058-059-192300-
EAST CENTRAL INDIANA

CITY           SKY/WX    TMP DP  RH WIND       PRES   REMARKS
MUNCIE         SUNNY     82  59  45 NW6       29.96S
RICHMOND +     SUNNY     81  64  57 W9        29.97R

$$

INZ060-061-067>069-081>083-085>088-192300-
SOUTHWEST INDIANA

CITY           SKY/WX    TMP DP  RH WIND       PRES   REMARKS
EVANSVILLE     MOSUNNY   88  66  48 VRB5      29.93F
HUNTINGBURG +  MOSUNNY   87  68  52 SW6       29.94F
WASHINGTON +   CLOUDY    88  63  42 MISG      29.92S

$$

INZ062-063-066-070>080-084-089>092-192300-
SOUTH CENTRAL AND SOUTHEAST INDIANA

CITY           SKY/WX    TMP DP  RH WIND       PRES   REMARKS
BEDFORD +      SUNNY     84  64  51 SW3       29.93S
BLOOMINGTON    CLOUDY    86  64  47 W6        29.93F
MADISON *+     SUNNY     82  63  51 SW10      29.97S
NORTH VERNON + MOSUNNY   84  66  54 CALM      29.94F
SEYMOUR +      CLOUDY    88  66  48 CALM      29.93S

$$





USA.gov is the U.S. government's official web portal to all federal, state and local government web resources and services.